GFSNGP_2pvu_pres_063.txt.gz
Presure
231 219 217 218 223 220 207 194 201 190 189 186 181 185 189 191 198 194 187 188 177 175 178 180 182 185 181 167 189 181 184 194 199 198 199 195 192 209 200 196 202 202 216 229
223 233 222 235 221 216 213 218 193 197 190 192 186 199 192 188 191 187 182 180 186 144 190 187 174 189 193 192 184 192 183 173 194 190 180 208 192 176 214 205 189 208 195 191
225 223 222 224 217 208 206 216 218 196 198 190 192 189 199 200 192 187 184 186 182 181 185 183 177 189 183 192 185 191 156 198 194 190 193 209 193 199 201 205 203 201 197 209
233 227 228 215 217 213 209 215 219 221 192 198 204 196 194 190 199 196 188 180 184 189 190 190 193 198 192 195 188 192 206 199 180 195 195 207 199 193 206 204 211 199 192 204
227 222 228 222 215 206 208 220 220 220 224 210 200 201 195 200 197 196 194 200 205 191 193 200 203 197 197 194 193 198 203 173 192 187 196 197 202 192 198 211 177 211 196 200
230 230 224 223 221 215 204 207 207 214 227 226 219 182 195 199 195 193 198 202 201 202 203 203 200 199 198 188 204 195 181 193 198 196 196 196 200 197 205 200 219 204 203 198
239 229 223 233 227 218 222 225 227 208 215 216 218 219 221 216 212 210 213 211 209 203 204 204 198 202 204 205 196 203 202 200 196 202 201 201 202 209 203 207 217 211 221 204
242 234 227 228 219 228 231 216 215 214 210 213 211 213 218 218 208 203 202 202 204 207 214 210 206 209 218 209 206 203 203 202 202 206 212 203 207 196 203 212 213 223 201 200
251 253 222 228 224 216 221 220 217 216 210 211 210 209 204 203 212 214 222 222 221 214 213 219 219 216 211 206 200 203 205 208 205 210 203 208 214 212 220 220 221 216 211 213
299 244 247 243 230 228 221 222 220 218 215 213 212 218 218 221 217 224 206 205 205 207 212 214 205 203 205 205 205 205 209 204 210 212 217 216 170 219 212 223 220 221 219 219
298 309 241 243 241 247 232 173 227 222 223 218 211 211 210 210 209 211 212 213 213 211 212 213 214 212 209 213 214 214 214 215 217 225 219 199 198 199 221 225 226 224 232 236
292 325 292 243 240 244 245 235 241 212 223 226 222 220 221 225 226 217 217 216 190 215 215 213 215 222 225 219 222 225 226 225 193 190 227 206 237 238 244 250 260 257 256 248
314 283 297 279 293 242 244 247 245 248 243 232 227 224 215 215 218 216 215 216 220 224 228 225 222 224 226 229 193 234 230 252 194 150 241 250 247 247 262 281 291 291 296 293
295 306 310 283 277 294 286 263 251 250 242 242 246 243 231 233 233 242 170 244 245 245 243 242 245 248 247 244 245 193 251 252 254 263 244 280 331 285 320 331 337 347 344 335
300 298 295 296 304 290 269 278 282 286 286 264 247 246 244 243 244 244 246 246 247 247 248 250 254 257 257 261 272 279 284 276 267 262 262 325 146 241 298 300 286 271 212 267
308 308 305 302 297 302 303 306 278 272 271 274 282 289 283 260 251 253 257 259 257 253 227 267 241 201 275 276 268 267 275 325 334 321 314 309 325 300 277 289 266 254 259 250
309 311 309 306 299 298 297 295 294 273 269 268 268 268 267 266 270 276 284 288 290 290 290 266 263 270 276 343 350 378 373 382 338 299 310 307 310 289 279 275 261 262 252 266
293 290 291 289 286 289 290 288 288 289 288 287 262 255 258 261 277 300 286 282 320 334 358 334 352 348 350 351 346 357 352 349 365 359 315 292 293 294 282 258 271 266 265 242
284 283 282 281 281 281 283 284 285 288 289 290 291 291 290 215 217 245 307 309 362 352 350 340 336 332 329 327 323 328 328 334 344 356 291 270 261 295 252 275 252 260 247 265
273 237 273 274 275 276 279 281 283 282 280 279 277 277 284 174 290 327 327 320 316 316 312 314 307 307 310 309 306 310 318 321 330 337 272 285 247 267 258 282 265 246 258 246
137 144 267 180 272 272 273 272 272 272 271 272 272 274 155 322 310 308 306 307 304 309 306 307 305 306 303 300 300 292 300 307 322 329 339 297 280 298 262 273 277 248 247 259
264 264 213 265 221 236 264 215 133 225 275 340 319 315 305 305 305 305 296 296 297 293 292 290 291 293 296 295 292 284 279 285 302 291 299 311 292 281 273 261 280 301 259 253
283 284 281 290 285 298 286 296 339 326 313 305 301 303 299 288 291 270 283 279 270 270 276 280 281 282 282 282 284 288 291 283 292 289 286 276 274 271 286 304 289 280 251 258
330 328 330 324 322 315 312 305 301 301 293 286 290 281 287 280 288 287 268 256 258 279 276 273 275 272 269 268 268 270 275 275 276 277 280 279 285 288 292 291 294 294 298 300
287 289 290 285 281 280 276 274 269 270 271 271 269 266 266 267 271 269 266 264 266 267 264 264 263 259 261 262 266 267 267 269 269 273 276 277 278 278 278 279 281 280 272 277
267 267 267 267 265 263 261 262 264 263 264 263 261 261 261 261 262 262 259 256 254 258 261 260 260 262 262 263 264 266 270 271 272 273 274 277 280 282 284 285 287 288 289 292
259 259 258 257 255 255 256 256 256 259 260 263 262 260 261 262 264 263 266 272 275 277 277 279 280 281 282 285 289 292 293 294 295 296 303 305 306 310 363 395 396 412 413 416

GFSNGP_2pvu_pres_069.txt.gz
Presure
260 260 229 243 234 227 223 235 220 210 206 208 197 201 212 193 190 194 187 165 179 190 180 182 182 182 183 171 182 183 169 171 186 179 180 182 186 181 160 185 187 199 198 195
254 250 232 256 240 234 226 223 224 213 205 198 206 207 208 202 207 181 185 182 189 180 189 180 179 182 185 184 186 183 180 163 169 174 179 184 175 185 170 189 192 179 183 198
251 256 233 246 249 239 222 219 216 229 209 201 200 213 207 208 199 200 190 188 181 187 181 188 183 181 180 178 182 182 185 178 177 184 189 182 181 182 184 192 192 193 198 193
254 257 233 222 266 242 234 226 217 216 222 214 195 198 201 214 211 199 208 195 183 180 187 184 181 186 189 184 185 181 150 189 192 185 183 183 181 180 185 188 195 195 197 196
265 242 247 231 263 262 241 230 223 215 218 210 209 214 207 206 197 214 221 222 207 196 192 185 187 180 174 177 184 188 186 186 182 179 187 187 180 186 187 201 195 195 196 193
271 259 243 261 261 258 232 236 222 227 220 211 210 208 204 201 201 198 203 207 217 239 220 217 187 192 193 191 187 189 189 183 190 188 183 185 192 198 199 196 195 201 200 198
276 272 233 261 233 264 256 233 224 225 224 233 219 211 208 210 208 206 208 200 174 196 203 219 218 204 195 183 182 191 188 177 183 191 189 192 192 193 192 208 205 200 199 202
281 282 248 271 252 271 252 248 224 215 224 219 227 224 217 216 214 211 210 209 208 215 219 209 202 205 211 208 204 203 204 200 196 204 200 194 194 197 209 203 200 198 193 196
283 270 281 290 263 304 253 249 244 222 219 213 212 211 218 219 222 223 221 221 222 223 223 224 223 223 223 221 223 222 217 205 200 209 210 212 213 210 211 207 206 202 207 216
284 276 280 280 255 293 255 248 240 244 221 222 218 219 226 221 215 218 211 212 222 214 210 216 221 216 223 226 229 228 226 225 223 217 215 218 216 220 221 218 222 224 213 206
279 278 286 244 283 287 258 245 246 231 244 233 231 220 226 224 216 213 209 212 216 211 213 217 214 220 222 215 213 218 224 225 224 225 222 218 213 212 222 221 222 212 214 215
258 265 276 274 283 250 289 243 238 238 234 231 231 236 236 224 221 222 220 222 227 224 223 222 217 211 209 214 214 231 217 212 213 212 214 222 215 231 234 236 225 217 219 220
266 264 270 268 277 282 263 250 237 167 238 234 233 233 236 225 226 225 225 224 232 217 221 215 212 219 219 217 216 216 216 221 222 219 222 227 222 223 223 217 212 214 225 217
280 275 278 280 274 276 281 248 272 228 237 236 235 239 241 242 249 254 235 227 233 221 213 212 211 211 213 214 222 229 229 227 228 225 226 225 228 238 236 233 236 236 162 229
294 302 281 274 280 283 281 277 281 288 268 247 244 242 237 239 245 242 239 238 231 236 241 238 231 231 240 243 236 230 228 228 232 234 235 236 235 237 239 251 255 255 248 212
306 303 302 309 298 304 302 292 282 284 286 291 287 239 238 236 240 240 236 232 230 227 240 238 229 226 229 233 234 235 237 242 241 245 245 251 252 250 257 254 181 309 293 281
302 302 303 300 318 299 296 291 330 320 324 287 284 287 296 290 248 244 239 238 238 237 237 236 236 238 239 240 244 255 252 251 251 256 258 252 302 299 291 305 338 348 343 338
301 301 305 302 302 322 304 315 297 300 313 311 285 315 321 323 323 320 320 326 299 281 269 268 274 262 259 263 269 273 300 308 287 298 302 287 309 342 336 330 323 319 324 318
301 295 295 292 293 291 286 285 291 293 289 289 292 295 296 305 301 300 300 300 306 302 300 307 286 284 268 268 283 293 315 314 314 303 314 321 323 320 317 313 307 312 301 303
311 299 289 290 290 295 303 315 312 311 312 317 317 310 302 302 302 310 311 312 300 304 305 300 304 305 306 306 307 303 298 293 312 325 319 308 305 305 301 285 300 299 297 295
284 286 286 287 288 292 293 294 295 296 297 299 300 300 300 299 298 297 297 296 295 294 295 295 295 296 296 293 287 296 334 320 320 311 303 304 297 293 290 288 288 288 286 282
283 284 284 232 135 127 141 282 286 286 232 286 286 286 286 286 286 286 288 288 291 291 291 288 287 282 281 311 327 312 311 308 304 292 301 291 282 273 265 265 271 277 279 280
270 269 269 269 271 271 273 275 276 276 277 277 278 276 275 277 277 277 277 276 277 280 329 345 337 326 317 312 304 303 295 293 298 297 294 290 278 275 279 280 279 278 278 277
291 292 292 292 291 292 296 295 305 316 317 317 325 331 338 326 326 326 317 309 304 299 296 294 294 295 290 284 282 280 278 277 277 279 280 279 274 267 265 269 274 278 279 279
263 264 263 265 268 269 268 267 267 269 271 272 274 277 277 279 280 279 278 277 276 276 277 277 278 277 275 270 268 268 268 268 269 270 274 276 279 281 283 287 295 300 310 319
251 256 258 260 261 262 262 263 263 264 264 265 266 266 266 267 267 267 268 269 268 270 272 272 273 274 274 278 281 282 284 288 291 294 299 305 314 330 352 375 422 423 405 411
252 252 256 261 266 270 273 276 277 278 281 280 281 282 283 284 285 284 283 282 283 285 288 289 291 295 301 305 325 346 347 355 350 343 341 458 481 474 464 457 449 441 430 424

GFSNGP_2pvu_pres_072.txt.gz
Presure
289 284 272 256 251 244 242 239 251 247 210 206 200 211 191 194 207 200 199 191 195 192 191 188 184 184 186 184 184 184 179 178 173 187 181 184 182 183 182 184 180 179 167 187
282 298 266 249 247 239 234 233 249 244 230 210 203 206 204 191 200 199 200 197 186 200 190 177 170 193 190 183 186 186 188 189 183 188 175 170 178 189 180 179 193 187 181 184
277 286 256 249 245 234 243 233 241 238 226 222 209 202 214 197 200 195 199 196 196 177 191 186 186 170 192 193 184 185 183 182 178 186 191 190 172 169 175 178 191 185 183 182
295 277 253 252 251 247 255 228 239 238 221 214 212 211 206 209 195 192 190 201 193 184 189 191 182 198 189 183 192 187 184 185 183 186 181 182 184 182 184 190 190 182 185 191
304 278 254 254 240 249 251 225 239 240 222 214 207 213 210 213 214 196 196 195 202 192 186 185 189 185 193 191 193 186 192 193 192 189 188 191 185 180 188 190 183 184 187 190
282 295 261 265 251 252 247 239 244 232 235 218 208 205 208 209 207 119 196 199 199 194 200 200 185 184 186 182 186 183 190 188 181 182 182 180 188 193 186 180 175 195 193 185
268 292 272 269 250 239 238 254 231 235 225 227 216 209 204 201 216 214 207 213 205 202 206 194 197 199 200 195 182 186 187 185 189 187 192 194 192 189 182 186 195 182 189 194
276 286 265 269 260 247 244 231 265 233 231 226 223 211 209 207 202 203 211 206 214 212 213 202 200 199 199 202 169 165 184 193 197 191 185 180 177 182 194 191 187 197 199 196
269 282 275 277 262 254 238 233 222 259 231 223 221 219 216 216 210 210 207 207 217 208 218 218 225 230 205 195 210 209 203 204 208 201 198 196 198 201 197 195 201 200 195 191
264 280 281 278 277 266 240 232 238 238 253 231 226 218 219 217 219 220 221 217 213 209 207 205 212 225 225 214 218 220 217 222 201 207 211 240 211 200 229 230 226 218 216 214
262 275 282 284 283 274 269 254 247 259 276 231 230 229 224 218 220 219 215 214 218 216 215 220 215 213 216 211 212 219 222 226 212 195 221 229 221 232 229 225 226 232 232 230
261 261 271 280 283 283 282 267 258 284 259 271 229 231 227 227 231 226 232 223 223 224 222 223 222 220 223 224 222 223 225 223 225 225 216 220 222 213 215 218 224 231 219 218
272 258 259 275 277 278 275 265 283 294 260 246 261 237 231 226 223 222 224 235 224 230 215 215 216 226 227 217 222 223 214 215 223 236 223 218 216 221 223 231 223 236 222 227
277 267 260 265 279 281 270 282 267 259 285 256 257 259 248 248 237 233 228 227 226 226 225 229 233 230 225 221 221 218 221 225 225 222 220 225 225 217 223 235 223 230 231 232
288 294 272 263 263 263 274 283 285 276 261 282 249 257 256 254 248 246 247 249 245 209 228 231 232 227 227 225 227 225 227 229 226 224 225 231 231 231 232 234 227 238 240 243
291 294 300 297 279 266 269 277 278 276 270 286 287 262 250 251 259 248 249 248 245 245 242 240 238 241 241 239 236 235 236 235 235 236 235 230 231 238 249 254 249 243 247 255
293 292 295 302 298 310 291 277 279 275 276 279 289 282 284 264 255 246 241 238 240 251 253 250 246 245 241 241 240 237 242 242 241 248 247 241 247 253 253 247 248 254 249 241
297 298 314 310 310 306 308 312 323 312 298 281 291 283 295 303 309 291 299 267 250 246 245 244 244 246 248 248 249 247 246 246 246 247 249 251 253 262 276 297 318 313 290 325
342 341 331 317 309 306 311 303 305 313 310 308 301 298 304 302 285 318 332 330 311 323 323 318 301 306 286 287 296 300 307 323 318 316 313 316 315 315 316 311 311 307 311 325
310 321 327 310 297 299 301 299 298 296 298 298 296 303 313 299 308 310 305 301 299 303 313 308 307 308 312 326 324 285 308 306 307 306 179 307 308 306 305 302 293 294 330 321
294 289 286 287 298 309 307 301 298 303 306 301 305 303 307 313 321 325 326 326 326 325 322 320 315 311 298 297 297 298 299 302 302 303 303 301 299 292 292 296 325 317 317 310
285 284 286 287 287 289 289 290 292 290 289 290 293 295 295 295 294 293 190 292 269 293 293 293 293 293 293 294 293 296 298 294 291 288 316 313 337 330 317 312 314 311 307 300
277 285 285 285 282 280 278 281 283 232 285 285 285 284 274 283 284 283 281 282 286 285 288 287 282 288 285 284 287 288 324 329 330 321 316 313 310 308 305 303 299 295 292 288
264 264 263 264 264 265 265 265 266 268 274 277 281 284 286 295 321 327 330 332 331 327 324 317 323 327 324 320 312 304 301 297 293 291 287 284 283 282 282 281 276 274 276 278
258 258 257 258 260 261 262 263 263 264 265 266 267 268 268 269 273 273 274 275 277 278 278 279 280 280 281 280 280 279 279 277 275 274 275 276 278 280 282 285 291 295 299 306
255 259 263 264 261 262 262 262 270 273 271 270 270 271 270 269 270 271 272 272 272 272 273 275 277 278 279 280 282 285 287 289 293 297 300 303 308 312 336 348 383 390 408 456
265 272 276 282 284 284 289 297 302 304 306 314 319 322 320 316 312 309 309 309 309 309 309 310 310 310 310 318 340 351 356 365 384 384 390 387 387 386 386 456 480 470 462 450

GFSNGP_2pvu_pres_075.txt.gz
Presure
283 266 261 253 247 254 254 276 258 268 238 251 232 245 218 211 209 200 217 202 193 181 197 188 185 186 189 183 183 190 186 187 180 180 196 181 194 183 181 183 194 182 178 177
321 291 285 265 268 270 251 270 247 256 240 246 230 232 220 214 199 204 206 206 206 188 189 188 190 186 182 191 182 184 186 188 182 183 182 194 179 180 179 181 181 180 181 192
298 299 288 282 262 260 268 259 245 249 235 236 219 228 217 220 210 208 201 205 197 194 180 190 191 190 189 182 175 179 185 185 184 187 184 182 183 172 168 183 175 191 184 188
279 296 315 294 287 289 259 251 239 251 237 233 221 229 218 216 210 209 203 204 200 197 199 192 192 192 193 190 188 174 175 185 189 188 182 185 185 186 185 185 180 178 176 183
268 286 300 291 282 279 255 245 233 257 234 233 227 226 214 227 215 222 202 198 206 210 197 197 184 192 188 175 178 190 191 172 172 177 193 193 188 182 185 187 191 192 187 184
261 275 288 292 284 269 249 244 232 250 233 230 233 216 218 210 207 214 198 200 193 192 197 196 193 179 182 185 193 196 194 191 165 194 189 168 189 190 193 194 191 190 191 191
256 269 277 282 284 264 250 246 236 244 235 233 232 227 219 217 209 214 216 197 192 197 200 201 195 203 198 179 182 183 184 185 191 191 190 182 196 183 192 186 185 182 191 181
295 264 272 299 280 257 245 245 241 240 229 237 231 222 226 222 208 217 212 214 211 199 193 198 192 194 197 203 202 193 197 190 194 195 193 193 193 174 184 185 191 197 198 207
297 272 272 284 281 253 245 251 247 236 244 241 231 231 221 216 224 222 210 210 205 204 209 200 195 192 199 193 195 199 204 203 195 200 199 193 199 194 197 201 192 192 191 184
285 295 270 264 303 253 250 247 246 245 234 238 233 228 224 218 214 217 227 233 217 211 214 214 212 206 207 200 193 193 193 194 199 200 196 202 193 199 193 209 205 211 213 210
287 296 275 266 293 282 249 247 248 250 242 253 232 239 229 220 216 215 212 218 217 229 233 212 205 205 205 208 206 207 204 210 205 208 205 212 203 225 206 200 196 200 214 195
284 300 264 274 277 283 269 266 253 247 249 238 254 229 245 228 223 219 218 218 211 213 213 217 227 228 224 218 215 216 223 218 224 224 221 231 204 230 225 231 230 232 227 230
291 294 265 253 279 281 277 264 267 253 244 250 241 256 231 241 238 224 223 221 221 226 225 214 213 213 213 217 218 222 218 223 218 217 226 231 227 222 219 225 226 224 235 224
290 290 268 258 262 281 280 275 274 271 262 252 237 242 250 167 229 239 238 181 236 232 230 221 224 221 221 219 226 220 220 223 224 223 229 228 220 215 219 226 224 225 227 236
294 288 270 263 259 267 278 283 284 275 273 270 262 251 240 235 246 249 240 236 173 237 239 241 240 237 231 225 226 228 225 227 230 228 228 232 229 230 234 233 234 227 229 236
291 290 280 271 266 261 265 273 281 282 290 266 279 272 266 260 245 247 263 274 259 239 215 232 236 249 252 248 238 229 229 230 228 225 227 224 228 234 232 228 239 248 247 248
281 286 285 281 273 274 266 261 264 277 285 285 268 277 275 257 264 271 252 268 265 266 267 249 247 247 249 249 247 245 242 238 234 185 240 241 241 243 245 254 239 244 249 247
291 299 306 302 288 289 291 301 283 266 263 261 267 272 283 284 277 263 272 277 261 258 256 262 267 269 266 264 265 264 259 259 258 253 258 260 260 261 253 254 251 252 253 247
306 291 287 298 301 301 309 302 297 311 292 297 292 262 264 271 276 275 273 279 282 283 275 250 261 261 261 263 263 263 264 265 266 269 268 268 269 270 278 313 286 292 318 321
299 305 311 315 319 327 335 340 330 307 305 312 306 305 309 308 308 279 277 279 282 281 296 293 290 291 292 300 298 297 308 313 309 314 331 333 318 309 314 325 323 320 318 319
296 296 295 295 296 298 301 306 312 316 326 320 319 322 317 314 308 312 312 317 325 326 327 329 299 325 327 332 332 332 327 324 324 323 321 319 318 318 315 316 315 310 307 306
276 248 244 287 289 289 288 286 285 287 288 290 292 295 296 298 299 298 300 300 302 304 304 304 306 307 308 308 309 310 311 312 311 312 310 309 306 304 301 300 296 297 308 337
223 222 276 272 272 224 226 288 230 266 306 307 307 309 252 311 312 315 324 328 326 317 312 295 310 297 297 311 305 298 297 293 296 305 318 318 321 329 339 338 331 319 308 303
143 260 262 262 263 264 266 266 272 274 275 276 277 279 280 281 285 286 289 290 291 291 291 291 294 296 297 301 304 305 303 299 301 299 297 296 296 296 296 295 292 288 286 282
256 255 254 256 257 259 260 260 261 262 264 265 265 267 268 268 271 271 272 274 275 277 278 279 280 280 280 280 280 280 281 282 282 283 283 283 283 285 287 288 289 293 298 304
254 262 269 274 276 276 278 285 285 289 293 297 298 298 300 301 301 303 305 307 307 308 306 302 303 303 302 301 300 301 302 304 306 308 311 313 315 321 331 343 364 390 389 385
278 271 269 275 280 287 296 308 303 314 346 350 355 349 346 347 345 340 339 341 345 348 351 354 357 361 364 366 370 373 378 381 385 387 389 388 386 382 375 371 371 411 434 433

GFSNGP_2pvu_pres_078.txt.gz
Presure
282 276 271 267 258 251 250 249 246 251 259 263 257 264 255 245 234 233 210 226 216 186 202 198 192 190 192 185 199 180 182 187 187 190 177 170 184 185 187 179 173 184 187 183
304 273 276 272 265 256 252 251 251 253 262 252 265 253 243 240 216 234 214 228 215 191 201 196 191 182 194 187 194 191 181 175 189 187 189 183 184 184 181 182 190 188 184 185
280 301 294 284 274 263 257 251 245 249 249 285 255 242 244 247 236 224 227 227 219 200 198 186 193 181 187 183 193 181 192 180 174 189 188 186 189 181 182 188 189 178 184 174
270 284 307 310 283 279 259 256 254 254 257 250 251 226 238 231 234 226 225 214 212 210 190 196 190 186 183 190 189 190 189 184 163 186 182 182 182 176 184 180 183 187 185 178
277 272 283 297 310 287 277 270 267 271 281 241 245 227 237 232 232 217 218 214 197 209 208 202 190 191 178 182 190 187 187 184 184 179 177 167 177 188 181 185 183 181 186 183
289 271 267 271 309 290 277 278 278 259 253 243 242 227 239 230 227 222 223 215 200 217 217 200 202 193 192 190 176 180 187 183 186 162 184 189 187 172 174 183 183 184 188 192
314 309 268 264 291 294 280 275 274 280 243 245 230 224 236 230 224 232 217 217 213 204 204 209 204 196 200 191 192 187 181 186 184 189 189 195 189 176 184 158 168 184 188 186
296 307 292 259 275 289 292 277 278 270 239 244 229 224 229 227 222 223 231 218 211 211 206 210 204 209 207 199 194 193 185 176 169 186 190 182 183 194 193 194 196 199 193 191
282 293 285 257 274 289 292 278 269 262 237 242 227 222 228 229 228 219 220 224 233 211 216 207 201 203 206 201 201 200 193 196 195 192 183 182 178 177 178 188 196 149 195 196
273 285 283 264 277 290 276 278 266 259 238 236 245 222 223 233 233 227 220 229 222 220 212 199 141 214 198 203 193 189 196 200 199 192 192 193 194 202 198 202 204 206 205 207
296 276 292 283 269 287 278 272 267 258 237 235 241 228 223 224 226 232 231 219 218 224 226 220 210 215 201 202 201 195 193 199 211 208 193 193 194 197 200 200 195 204 206 202
290 286 293 296 264 282 285 270 265 255 250 235 235 240 227 225 224 222 230 235 222 220 225 220 218 216 218 219 214 197 207 195 193 193 195 199 206 205 206 210 207 208 208 207
289 297 301 301 269 270 287 272 266 260 248 245 237 236 243 234 226 227 222 220 233 239 231 214 215 215 216 213 214 214 214 214 219 222 219 213 210 208 213 215 214 213 207 204
287 305 298 295 290 265 260 286 267 257 255 246 247 245 241 243 238 230 232 224 224 227 233 227 237 240 229 226 223 224 226 225 225 224 225 224 218 218 218 214 215 219 229 231
292 296 301 285 302 281 267 257 287 261 255 253 244 246 247 249 241 241 244 229 227 223 227 236 235 233 234 231 230 234 235 231 226 209 225 225 226 228 229 230 224 223 229 235
285 297 292 285 287 289 265 265 273 290 275 259 254 250 250 245 250 249 239 247 253 236 231 228 221 227 223 219 221 224 224 226 228 227 227 227 228 230 210 236 237 237 237 236
301 301 283 285 289 289 273 262 256 264 284 286 278 270 265 265 254 250 256 246 238 241 256 259 245 245 248 244 235 228 228 232 236 238 240 238 240 238 243 242 232 235 244 245
293 283 285 286 286 289 282 272 263 260 259 271 284 283 277 275 272 267 261 256 252 251 247 239 240 254 262 259 240 240 240 239 245 251 252 248 250 249 252 252 251 249 248 240
295 296 287 298 288 285 286 283 274 276 270 261 259 261 269 278 285 287 276 280 271 270 270 264 267 261 254 255 259 256 262 257 235 267 275 277 282 285 286 282 279 274 277 279
287 295 313 314 314 299 299 300 300 292 306 284 285 294 291 270 267 273 280 285 291 282 273 287 284 275 279 282 275 274 272 274 278 279 279 279 276 280 289 291 293 291 292 271
296 297 297 296 298 299 304 307 310 314 323 328 294 334 325 308 302 324 325 295 275 271 269 271 280 284 286 291 295 295 294 291 289 287 289 297 302 299 298 294 296 293 306 327
276 286 295 298 303 306 308 308 309 311 314 315 312 309 307 309 311 315 319 319 322 324 324 298 324 304 307 307 307 328 325 306 304 301 297 308 324 324 322 320 318 316 314 309
275 274 222 185 274 274 276 278 281 284 287 233 294 298 300 301 304 306 309 309 316 317 321 324 326 326 326 318 315 316 320 323 328 329 340 334 305 311 317 324 314 327 325 319
147 261 194 262 266 266 264 265 267 268 272 274 276 278 279 281 286 290 293 295 296 296 298 300 302 302 302 304 305 306 306 306 305 305 304 303 302 302 300 294 290 284 283 281
250 251 252 261 264 278 282 280 277 280 285 284 289 291 291 289 284 284 282 281 282 282 281 283 283 283 284 285 288 291 290 288 288 292 298 298 300 303 304 305 309 313 318 323
271 250 273 267 283 279 279 310 310 302 296 300 303 305 316 318 318 321 321 324 323 318 321 331 329 328 328 326 327 329 332 334 339 361 367 377 390 393 395 395 394 392 392 388
268 302 305 303 307 304 310 318 320 324 380 392 385 381 379 378 379 378 380 380 381 382 383 385 386 387 387 386 384 382 378 375 372 370 367 369 459 455 452 483 476 471 465 456

GFSNGP_2pvu_pres_081.txt.gz
Presure
304 295 286 290 277 257 249 253 242 237 236 236 235 234 235 221 258 300 281 260 261 232 225 222 215 206 196 194 190 194 174 195 187 191 194 174 188 182 192 178 187 192 191 196
283 302 307 251 289 269 252 246 243 247 240 238 239 234 238 209 266 277 255 262 251 260 225 220 214 199 196 195 190 197 181 192 197 183 190 192 179 190 185 189 169 170 183 184
270 287 298 303 263 278 265 248 243 242 247 248 245 243 216 242 278 254 246 251 235 247 213 217 207 203 200 197 193 183 190 184 202 186 177 188 183 188 183 191 184 175 180 181
285 270 290 285 289 269 267 262 255 250 245 244 247 226 237 247 276 244 248 229 224 231 215 214 195 209 192 198 192 192 182 181 180 198 193 182 182 181 176 191 180 192 188 183
283 289 273 285 301 285 279 259 254 253 253 252 248 253 227 266 264 242 237 219 230 236 218 212 194 207 174 198 192 194 188 173 183 193 197 180 182 172 170 165 175 183 180 176
287 298 273 272 283 315 279 274 259 250 248 253 248 242 234 258 254 234 230 225 223 214 202 215 212 204 199 184 198 188 194 187 179 181 185 197 183 192 181 175 149 182 163 160
286 293 290 268 273 288 310 277 266 252 245 252 254 237 257 252 246 232 227 229 212 210 213 203 210 208 198 190 193 194 188 192 192 181 194 192 189 186 185 181 182 183 179 172
299 303 330 272 267 268 294 313 276 275 255 250 257 246 253 239 241 234 231 215 233 203 213 224 220 213 204 202 191 196 197 194 191 192 191 172 180 188 188 186 183 192 192 185
298 325 303 295 263 260 265 281 308 278 276 266 252 274 247 235 237 226 224 216 211 218 219 206 212 219 214 200 201 201 197 194 189 195 191 195 196 188 173 185 199 196 187 199
295 301 309 298 275 259 259 267 303 293 275 270 271 270 244 235 239 224 228 218 222 220 214 214 218 211 214 226 209 203 199 193 200 197 187 183 187 191 201 194 194 194 195 196
305 310 335 282 295 286 265 265 291 288 269 275 260 265 239 236 234 238 225 231 224 229 224 216 215 215 218 215 212 215 217 209 197 203 203 203 198 190 190 185 189 192 193 195
315 302 302 274 282 307 276 257 281 297 277 272 260 257 240 236 227 233 238 233 227 228 219 224 222 219 214 213 217 215 210 210 213 208 205 208 210 207 201 201 202 196 193 193
275 283 285 278 291 298 271 258 275 292 288 270 258 262 245 236 230 231 232 227 245 224 225 233 227 226 221 222 227 219 216 220 215 210 202 206 214 213 214 216 216 207 206 205
280 287 287 284 288 289 285 255 269 288 289 271 265 263 247 237 236 226 232 228 226 232 236 230 228 231 224 227 228 234 227 218 219 225 212 218 221 221 219 215 210 212 212 218
281 289 284 288 286 279 289 268 254 282 276 275 261 265 252 239 240 243 225 226 233 231 231 235 240 234 236 229 230 234 235 232 223 227 230 232 228 227 224 211 223 224 228 227
275 285 280 291 298 299 289 287 261 264 288 271 272 264 262 250 243 237 241 243 229 225 225 230 236 237 240 236 234 235 233 228 224 225 228 229 227 226 226 227 220 217 225 225
284 299 284 279 287 303 293 282 289 256 268 288 269 276 264 263 248 250 242 127 234 244 241 239 237 237 229 230 237 238 236 232 235 245 238 236 237 232 229 226 226 226 226 233
309 318 300 276 286 294 296 287 284 293 267 263 262 287 276 273 267 262 252 245 247 249 245 239 240 244 244 242 241 242 245 246 241 239 239 240 239 240 244 241 245 247 247 248
294 290 290 296 298 290 289 293 289 287 290 288 277 267 262 294 288 273 269 265 262 260 258 257 254 254 254 254 253 252 251 252 256 244 264 264 263 261 258 259 260 254 255 269
295 297 299 297 302 292 288 294 293 293 292 297 305 284 270 267 265 274 294 299 296 286 276 271 267 266 265 266 267 268 265 263 263 265 265 265 264 262 264 271 275 276 282 286
277 299 299 298 296 298 299 301 302 309 313 293 291 310 297 298 290 277 272 265 265 267 274 288 293 295 296 298 294 292 293 289 285 287 290 289 287 286 286 295 298 296 291 291
286 284 287 287 285 285 287 289 290 291 293 296 300 302 302 303 314 321 322 325 306 315 298 306 300 287 284 281 282 277 274 279 280 279 279 289 291 290 274 280 287 289 291 308
275 265 275 277 277 277 276 278 284 286 287 289 291 294 296 300 304 306 309 314 316 318 317 316 319 319 323 325 325 325 328 329 326 325 331 333 328 325 326 333 332 333 331 329
261 261 262 262 263 253 264 265 269 274 275 276 278 280 281 284 284 286 289 290 291 292 295 296 298 303 310 315 317 317 317 316 317 318 319 318 318 317 315 312 309 305 300 296
275 252 256 263 264 267 285 307 314 307 300 299 303 310 312 297 299 300 307 311 310 305 301 303 302 298 298 295 295 294 293 293 294 294 294 295 296 301 307 312 310 311 315 319
264 260 260 264 281 285 308 308 310 314 318 315 312 312 318 328 365 336 330 328 325 325 325 323 337 351 357 358 357 357 358 355 355 357 358 358 391 396 396 391 391 389 382 379
275 281 278 307 313 307 303 303 343 384 395 386 375 367 369 371 372 375 377 379 381 382 382 382 381 380 382 383 383 383 382 380 380 381 381 380 379 379 375 375 409 418 426 421

GFSNGP_2pvu_pres_084.txt.gz
Presure
348 282 296 306 274 292 257 256 249 241 237 233 230 226 224 217 218 221 212 212 228 224 236 263 286 250 220 219 218 206 205 203 194 201 198 181 198 193 183 190 190 201 219 188
398 306 286 317 303 284 269 248 254 248 248 241 228 226 228 222 219 218 231 235 218 246 277 272 277 253 235 220 211 212 202 204 192 199 192 187 193 187 197 185 184 199 185 190
478 314 283 302 289 304 286 255 255 263 251 242 238 235 233 228 227 229 234 228 240 295 290 262 270 247 226 227 210 211 194 204 178 188 171 188 192 183 186 198 181 175 195 184
410 318 295 271 298 287 300 280 272 257 256 247 240 234 228 227 232 235 240 197 277 239 248 252 256 223 216 225 208 208 203 201 200 191 186 171 186 200 179 181 200 187 185 189
354 330 286 265 285 282 284 289 284 267 256 259 245 239 235 231 227 225 226 262 264 247 246 243 237 235 212 222 209 207 199 198 200 193 189 196 183 188 201 185 183 181 179 175
329 315 285 273 266 287 277 280 264 273 262 251 246 245 246 242 240 216 259 244 249 250 239 227 240 222 214 220 203 211 204 198 197 192 192 185 180 186 184 196 199 198 173 180
297 279 255 276 287 266 287 288 270 287 265 251 246 237 235 236 235 227 229 271 242 246 235 232 230 220 214 219 213 205 202 199 193 198 190 192 191 181 182 186 191 190 193 177
285 282 265 287 316 294 268 288 294 285 266 259 255 253 252 250 248 249 236 267 230 238 230 230 225 232 219 212 207 197 210 206 188 215 195 187 192 196 186 191 178 176 198 198
281 273 272 275 279 286 302 275 288 319 273 254 254 251 243 251 239 251 230 263 227 237 226 223 223 216 239 203 208 211 204 204 201 205 185 215 192 188 189 213 194 194 192 189
283 278 277 282 297 289 318 270 271 303 288 259 252 247 247 247 246 224 261 255 233 234 230 239 214 216 231 193 211 209 211 206 198 200 203 195 193 201 192 190 191 192 194 193
288 285 294 290 294 290 306 278 261 269 301 277 258 252 247 249 249 231 249 257 229 233 223 227 221 217 205 215 218 194 192 204 214 213 198 209 203 200 187 198 193 193 194 194
292 299 289 297 310 303 285 305 271 263 275 306 281 253 250 249 240 243 262 240 244 233 231 225 236 215 206 209 212 216 219 219 209 206 208 207 200 199 194 195 203 201 198 202
293 295 303 301 273 283 290 295 308 260 260 266 297 296 273 258 257 242 264 241 243 238 232 220 228 219 232 215 222 209 214 221 224 229 208 201 210 212 198 195 194 198 201 195
305 295 294 265 291 277 322 287 298 278 261 255 275 302 291 280 270 268 265 240 239 249 237 229 225 229 228 224 215 213 211 214 219 219 217 220 222 217 229 229 228 220 222 217
283 306 296 281 280 278 297 285 283 298 283 261 259 287 298 276 270 259 262 243 239 239 245 242 228 237 233 225 212 214 223 224 222 219 219 220 221 220 218 215 218 220 218 216
321 269 304 278 306 292 293 281 287 293 292 267 254 270 288 288 272 259 267 249 242 239 240 247 243 243 228 232 234 229 226 229 223 220 222 224 226 226 226 225 224 225 233 230
293 277 237 280 290 288 288 290 280 281 305 269 260 267 276 294 263 275 271 262 245 243 242 243 247 241 247 248 242 235 239 234 226 219 220 222 225 226 225 224 221 223 221 222
282 273 268 268 270 272 282 284 295 304 271 294 290 260 263 276 291 292 273 274 261 248 251 241 241 244 252 253 242 242 233 238 247 242 236 237 241 242 242 241 240 238 241 239
300 309 318 318 319 318 301 293 288 292 291 296 291 289 286 263 257 289 285 283 267 275 256 252 252 247 238 242 252 247 246 247 247 246 246 246 246 244 244 247 246 244 246 247
287 304 301 291 287 278 286 286 287 289 292 293 297 297 285 286 293 269 262 283 293 286 277 275 266 255 251 250 252 253 252 251 249 251 253 252 252 253 253 253 252 252 254 260
275 274 277 283 287 289 294 297 299 299 300 301 303 303 293 303 299 282 293 291 283 272 274 287 297 294 284 278 269 264 261 260 260 258 259 261 262 263 264 267 269 269 273 274
276 273 273 274 275 275 276 277 279 282 285 286 288 289 294 300 308 313 320 324 300 311 318 308 303 284 278 280 286 294 305 307 307 310 314 313 313 315 314 316 314 309 303 306
258 259 259 259 265 267 265 263 265 265 266 270 273 277 279 283 289 291 293 301 306 311 314 317 317 318 320 322 327 324 323 323 325 328 330 332 334 313 334 339 314 332 332 324
260 263 262 264 145 258 264 266 271 276 278 300 311 312 316 311 310 314 313 302 293 293 293 294 297 299 302 306 309 311 313 313 315 317 317 317 318 318 318 319 319 317 316 313
133 260 260 263 270 279 275 319 318 310 309 309 314 318 320 322 324 324 324 332 342 334 324 322 321 320 317 304 298 297 308 311 308 302 297 297 296 294 296 297 299 299 297 302
193 261 261 270 267 275 308 296 291 299 315 364 406 395 393 392 391 393 391 388 386 381 356 352 337 335 352 351 354 359 363 346 336 337 335 329 327 328 330 357 358 377 393 392
255 255 261 278 266 291 292 300 315 327 381 413 407 398 370 365 362 364 367 369 372 376 379 381 382 382 382 382 383 383 384 385 385 385 385 384 382 379 376 375 373 371 369 366